User: anonymous   Login
Location: NJAA Observatory
(40.6819°N, 74.8979°W)
Time: 08:14:15
(UTC-05:00)
Language:

ATLAS CENTAUR R/B - Orbit

View from above orbital plane
View from above orbital plane
View from above satellite
View from above satellite

Ground track
Ground track

The orbit data is extracted from the following two-line orbital elements,

1 28385U 04034B   15026.73549395 0.00048000  00000-0  16816-2 0    05
2 28385  57.3404 259.9265 4008171  44.6975 341.3918  7.47158714    08
Epoch (UTC): 26 January 2015 17:39:06
Eccentricity: 0.4008171
inclination: 57.3404°
perigee height: 244 km
apogee height: 9104 km
right ascension of ascending node: 259.9265°
argument of perigee: 44.6975°
revolutions per day: 7.47158714
mean anomaly at epoch: 341.3918°
orbit number at epoch: 0

The dashed part of the orbit path shows where the satellite is in the earth's shadow,  

DLR